Regional Weather Roundup
Issued by NWS

Home | Current Version | Previous Version | Graphics & Text | Print | Product List | Glossary On
Versions: 1 2 3 4 5 6 7 8 9 10 11 12 13 14 15 16 17 18 19 20 21 22 23 24 25 26 27 28 29 30 31 32 33 34 35 36 37 38 39 40 41 42 43 44 45 46 47 48 49 50
000
ASUS43 KLSX 180257
RWRMO

WEATHER SUMMARY FOR MISSOURI
NATIONAL WEATHER SERVICE SPRINGFIELD MO
900 PM CST SUN DEC 17 2017

NOTE: "FAIR" INDICATES FEW OR NO CLOUDS BELOW 12,000 FEET WITH NO
       SIGNIFICANT WEATHER AND/OR OBSTRUCTIONS TO VISIBILITY.
       CURRENT SKY AND/OR WEATHER CONDITIONS ARE NOT AVAILABLE FOR
       CHILLICOTHE AND FARMINGTON.

MOZ001>031-035>038-043-044-053-054-180400-
...NORTHERN AND WESTERN MISSOURI...

CITY           SKY/WX    TMP DP  RH WIND       PRES   REMARKS
KANSAS CTY INT PTCLDY    43  41  93 SW12      30.01S
LEE`S SUMMIT   CLOUDY    42  41  96 SW9       30.03S
ST JOSEPH      CLOUDY    40  40 100 N3        30.02S FOG
CHILLICOTHE      N/A     45  44  97 CALM      30.02F
KIRKSVILLE     CLOUDY    44  32  62 SW10      30.01S FOG

$$
MOZ066>068-077>081-088>096-101>105-180400-
...SOUTHWEST MISSOURI...

CITY           SKY/WX    TMP DP  RH WIND       PRES   REMARKS
SPRINGFIELD    CLOUDY    46  45  96 SW3       30.07R
JOPLIN         CLOUDY    45  45 100 SW3       30.08S FOG
BRANSON        FOG       45  45 100 CALM      30.08F VSB 3/4

$$
MOZ032>034-039>042-045>050-055>058-069>072-180400-
...CENTRAL MISSOURI...

CITY           SKY/WX    TMP DP  RH WIND       PRES   REMARKS
COLUMBIA       NOT AVBL
JEFFERSON CITY CLOUDY    47  43  86 SW7       30.07S
ROLLA          CLOUDY    45  45 100 W7        30.07F
SEDALIA        CLOUDY    46  45  96 S10       30.05F
WARRENSBURG    CLOUDY    43  41  93 S6        30.04S

$$
MOZ051-052-059>065-180400-
...EAST CENTRAL MISSOURI...

CITY           SKY/WX    TMP DP  RH WIND       PRES   REMARKS
ST LOUIS INTL  DRIZZLE   48  44  86 SW7       30.07S

$$
MOZ072>076-082>087-097>100-106>115-180400-
...SOUTH CENTRAL AND SOUTHEAST MISSOURI...

CITY           SKY/WX    TMP DP  RH WIND       PRES   REMARKS
CAPE GIRARDEAU CLOUDY    45  43  93 S5        30.12F
FARMINGTON     CLOUDY    45  43  93 CALM      30.09S
POPLAR BLUFF   CLOUDY    46  44  93 S5        30.12S
WEST PLAINS    CLOUDY    45  44  97 S7        30.09S FOG

$$



USA.gov is the U.S. government's official web portal to all federal, state and local government web resources and services.